Regional Weather Roundup
Issued by NWS

Home | Current Version | Previous Version | Text Only | Print | Product List | Glossary On
Versions: 1 2 3 4 5 6 7 8 9 10 11 12 13 14 15 16 17 18 19 20 21 22 23 24 25 26 27 28
000
ASUS44 KJAN 280810
RWRMS

MISSISSIPPI HOURLY WEATHER ROUNDUP
NATIONAL WEATHER SERVICE JACKSON MS
300 AM CDT WED JUN 28 2017

NOTE: "FAIR: INDICATES FEW OR NO CLOUDS BELOW 12,000 FEET WITH NO
SIGNIFICANT WEATHER AND/OR OBSTRUCTIONS TO VISIBILITY.

MSZ001>002-007>008-010>013-018>021-025>028-034>036-280900-
NORTHWEST MISSISSIPPI

CITY           SKY/WX    TMP DP  RH WIND       PRES   REMARKS
BATESVILLE     FAIR      65  64  96 CALM      30.04F FOG
GREENWOOD      PTCLDY    70  65  84 VRB3      30.02S
GREENVILLE     PTCLDY    69  65  86 SE5       30.02R
OXFORD         FAIR      66  63  88 SE6       30.06F
TUNICA           N/A     68  64  88 SE6       30.03F
WINONA         FAIR      66  66  99 CALM      30.04R
$$

MSZ003>006-009-014>017-022>024-029>033-037>039-280900-
NORTHEAST MISSISSIPPI

CITY           SKY/WX    TMP DP  RH WIND       PRES   REMARKS
COLUMBUS AFB   CLEAR     66  64  91 CALM      30.04S
CORINTH        FOG       64  63  94 CALM      30.07S VSB 1/2
GOLDN TRIANGLE CLEAR     70  59  68 E5        30.01F
STARKVILLE     FAIR      68  63  83 CALM      30.05F
TUPELO         MOCLDY    68  63  84 CALM      30.06S
$$

MSZ040-058-280900-
CENTRAL MISSISSIPPI

CITY           SKY/WX    TMP DP  RH WIND       PRES   REMARKS
JACKSON INTL   CLEAR     69  65  86 CALM      30.03S
JACKSON HAWKNS CLEAR     72  64  76 SE5       30.03S
MERIDIAN KEY   CLEAR     68  67  96 CALM      30.04S
MERIDIAN NAS   CLEAR     68  63  84 CALM      30.04F
VICKSBURG VKS  SUNNY     70  66  88 SE3       29.98S
$$

MSZ059>079-280900-
SOUTH MISSISSIPPI

CITY           SKY/WX    TMP DP  RH WIND       PRES   REMARKS
COLUMBIA       FAIR      70  68  94 CALM      30.04F
HATTIESBURG    MOCLDY    71  69  93 CALM      30.03R
MCCOMB         CLOUDY    73  68  84 E3        30.01F
NATCHEZ        PTCLDY    69  67  93 CALM      30.01F
PINE BELT      MOCLDY    70  64  83 CALM      30.04F
$$

MSZ080>082-280900-
COASTAL MISSISSIPPI

CITY           SKY/WX    TMP DP  RH WIND       PRES   REMARKS
BILOXI         CLOUDY    77  69  78 E6        29.99S
PASCAGOULA     PTCLDY    73  68  84 CALM      29.99F
GULFPORT       MOCLDY    77  69  76 E5        29.99S
$$

LAZ007>009-015>016-023>026-280900-
NORTHEAST LOUISIANA

CITY           SKY/WX    TMP DP  RH WIND       PRES   REMARKS
BASTROP        FAIR      67  66  97 CALM      30.02S
TALLULAH/VBURG CLEAR     69  67  93 CALM      30.01S
VIDALIA        FAIR      69  68  98 CALM      29.99F
$$




USA.gov is the U.S. government's official web portal to all federal, state and local government web resources and services.